Location: Asheville, NC
(35.6000°N, 82.5500°W)
Time: 20:07:19

Tiangong 2 - Pass Details

Date: 13 March 2018
Orbit: 383 x 388 km, 42.8° (Epoch: 19 March)

Event Time Altitude Azimuth Distance (km) Brightness Sun altitude
Exits shadow 06:46:38 23° 265° (W) 880 2.2 -12.4°
Maximum altitude 06:48:24 56° 337° (NNW) 462 1.3 -12.1°
Drops below altitude 10° 06:51:32 10° 57° (ENE) 1,409 5.0 -11.4°
Sets 06:53:38 0° 62° (ENE) 2,266 6.3 -11.0°
